| time (UTC) | temp C | wind direction | speed KPH | gust KPH | rain 1hr cm | rain 24hr cm | rain mn cm | humidity % | barometer mb |
| 20260505070036 | 6 | 149 | 3.2 | 12.9 | 0.00 | 0.23 | 0.00 | 86 | 1008.0 |
| 20260505064541 | 6 | 144 | 4.8 | 11.3 | 0.00 | 0.33 | 0.00 | 86 | 1007.6 |
| 20260505063031 | 6 | 240 | 3.2 | 11.3 | 0.00 | 0.33 | 0.00 | 86 | 1007.3 |
| 20260505061527 | 6 | 229 | 1.6 | 12.9 | 0.00 | 0.33 | 0.00 | 84 | 1007.1 |
| 20260505060024 | 7 | 248 | 1.6 | 9.7 | 0.00 | 0.33 | 0.00 | 84 | 1006.8 |
| 20260505054540 | 7 | 82 | 1.6 | 14.5 | 0.00 | 0.36 | 0.00 | 84 | 1006.3 |
| 20260505053018 | 7 | 232 | 1.6 | 12.9 | 0.00 | 0.36 | 0.00 | 83 | 1006.0 |
| 20260505051515 | 8 | 53 | 1.6 | 11.3 | 0.00 | 0.36 | 0.00 | 82 | 1005.8 |
| 20260505041507 | 8 | 151 | 4.8 | 12.9 | 0.00 | 0.41 | 0.00 | 81 | 1004.9 |
| 20260505040004 | 8 | 31 | 3.2 | 16.1 | 0.00 | 0.43 | 0.00 | 81 | 1004.7 |
| 20260505034612 | 8 | 144 | 1.6 | 9.7 | 0.00 | 0.43 | 0.00 | 81 | 1004.6 |
| 20260505033056 | 8 | 151 | 6.4 | 12.9 | 0.00 | 0.43 | 0.00 | 82 | 1004.5 |
| 20260505031553 | 8 | 167 | 4.8 | 20.9 | 0.00 | 0.43 | 0.00 | 84 | 1004.3 |
| 20260505030059 | 8 | 186 | 1.6 | 9.7 | 0.00 | 0.43 | 0.00 | 83 | 1004.2 |
| 20260505024601 | 9 | 174 | 6.4 | 14.5 | 0.00 | 0.43 | 0.43 | 81 | 1004.0 |
| 20260505023048 | 9 | 176 | 6.4 | 22.5 | 0.00 | 0.43 | 0.43 | 79 | 1003.9 |
| 20260505021546 | 9 | 166 | 9.7 | 24.1 | 0.00 | 0.43 | 0.43 | 77 | 1003.6 |
| 20260505020059 | 9 | 163 | 4.8 | 20.9 | 0.00 | 0.43 | 0.43 | 76 | 1003.3 |
| 20260505014543 | 9 | 238 | 6.4 | 11.3 | 0.00 | 0.56 | 0.43 | 75 | 1003.2 |
| 20260505013043 | 9 | 238 | 3.2 | 17.7 | 0.00 | 0.56 | 0.43 | 74 | 1003.0 |
| 20260505011543 | 9 | 255 | 4.8 | 16.1 | 0.00 | 0.56 | 0.43 | 73 | 1003.2 |
| 20260505010050 | 9 | 165 | 3.2 | 22.5 | 0.00 | 0.56 | 0.43 | 72 | 1002.9 |
| 20260505004556 | 9 | 213 | 6.4 | 14.5 | 0.00 | 0.86 | 0.43 | 69 | 1002.5 |
| 20260505003037 | 9 | 241 | 4.8 | 14.5 | 0.00 | 0.86 | 0.43 | 68 | 1002.4 |
| 20260505001539 | 9 | 282 | 3.2 | 12.9 | 0.00 | 0.86 | 0.43 | 67 | 1002.3 |
| 20260505000037 | 8 | 232 | 6.4 | 17.7 | 0.00 | 0.86 | 0.43 | 71 | 1002.3 |
| 20260504234532 | 8 | 217 | 6.4 | 12.9 | 0.00 | 1.27 | 0.43 | 72 | 1001.8 |
| 20260504233030 | 8 | 216 | 4.8 | 16.1 | 0.00 | 1.27 | 0.43 | 69 | 1001.5 |
| 20260504231527 | 8 | 230 | 1.6 | 17.7 | 0.00 | 1.27 | 0.43 | 70 | 1001.3 |
| 20260504230027 | 9 | 244 | 1.6 | 8.0 | 0.00 | 1.27 | 0.43 | 68 | 1001.0 |
| 20260504224532 | 10 | 146 | 1.6 | 11.3 | 0.00 | 1.42 | 0.43 | 61 | 1000.9 |
| 20260504223024 | 10 | 160 | 8.0 | 19.3 | 0.00 | 1.42 | 0.43 | 60 | 1000.8 |
| 20260504221530 | 10 | 167 | 9.7 | 19.3 | 0.00 | 1.42 | 0.43 | 61 | 1000.5 |
| 20260504220022 | 10 | 217 | 3.2 | 11.3 | 0.00 | 1.42 | 0.43 | 59 | 1000.6 |
| 20260504214521 | 11 | 219 | 8.0 | 30.6 | 0.00 | 1.73 | 0.43 | 58 | 1000.6 |
| 20260504213035 | 11 | 289 | 4.8 | 37.0 | 0.00 | 1.73 | 0.43 | 58 | 1000.3 |
| 20260504211519 | 11 | 132 | 6.4 | 19.3 | 0.00 | 1.73 | 0.43 | 62 | 1000.1 |
| 20260504210017 | 11 | 211 | 9.7 | 37.0 | 0.00 | 1.73 | 0.43 | 63 | 1000.3 |
| 20260504204515 | 11 | 3 | 3.2 | 25.7 | 0.00 | 1.75 | 0.43 | 65 | 999.8 |
| 20260504203013 | 11 | 205 | 12.9 | 29.0 | 0.00 | 1.75 | 0.43 | 65 | 999.7 |
| 20260504201509 | 11 | 184 | 11.3 | 19.3 | 0.00 | 1.75 | 0.43 | 66 | 999.3 |
| 20260504200008 | 11 | 158 | 6.4 | 19.3 | 0.00 | 1.85 | 0.43 | 70 | 999.0 |
| 20260504194505 | 11 | 220 | 4.8 | 20.9 | 0.00 | 1.85 | 0.43 | 73 | 998.6 |
| 20260504193059 | 10 | 182 | 4.8 | 35.4 | 0.00 | 1.85 | 0.43 | 75 | 998.4 |
| 20260504191615 | 10 | 157 | 8.0 | 17.7 | 0.00 | 1.85 | 0.43 | 78 | 998.2 |
| 20260504190055 | 9 | 176 | 9.7 | 20.9 | 0.00 | 1.85 | 0.43 | 81 | 997.9 |
| 20260504184556 | 8 | 126 | 6.4 | 17.7 | 0.00 | 1.91 | 0.43 | 83 | 997.9 |
| 20260504183047 | 8 | 136 | 4.8 | 30.6 | 0.00 | 1.91 | 0.43 | 84 | 997.8 |
| 20260504181544 | 8 | 76 | 4.8 | 12.9 | 0.00 | 1.91 | 0.43 | 84 | 997.4 |
| 20260504180043 | 8 | 194 | 8.0 | 17.7 | 0.00 | 1.91 | 0.43 | 85 | 997.2 |
| 20260504174539 | 7 | 134 | 8.0 | 17.7 | 0.00 | 1.91 | 0.43 | 85 | 996.9 |
| 20260504173038 | 7 | 129 | 4.8 | 20.9 | 0.00 | 1.91 | 0.43 | 85 | 996.7 |
| 20260504171538 | 7 | 235 | 11.3 | 24.1 | 0.00 | 1.91 | 0.43 | 86 | 996.4 |
| 20260504081518 | 3 | 105 | 4.8 | 17.7 | 0.08 | 1.80 | 0.25 | 94 | 976.3 |